Beaufort, NC

4:38 PM EDT on October 16, 2019 (GMT -0400)
Smith

Weather History for KMRH - May, 2019

Change the Weather History Date:

Saturday, May 25, 2019

  Actual Average Record
Temperature  
Mean Temperature 77 °F -  
Max Temperature 84 °F 79 °F 91 °F (1975)
Min Temperature 70 °F 64 °F 49 °F (1967)
Cooling Degree Days 12    
Growing Degree Days 27 (Base 50)    
Moisture  
Dew Point 66 °F    
Average Humidity 65    
Maximum Humidity 84    
Minimum Humidity 54    
Precipitation  
Precipitation 0.00 in - - ()
Sea Level Pressure  
Sea Level Pressure 30.13 in    
Wind  
Wind Speed 8 mph (SE)    
Max Wind Speed 13 mph    
Max Gust Speed 16 mph    
Visibility 10 miles    
Events      
Averages and records for this station are not official NWS values.
T = Trace of Precipitation, MM = Missing Value Source: NWS Daily Summary

Daily Weather History Graph

Daily Weather History Graph

Search for Another Location

Airport or City:

Astronomy

May. 25, 2019 Rise Set
Actual Time 5:57 AM EDT 8:09 PM EDT
Civil Twilight 5:28 AM EDT 8:38 PM EDT
Nautical Twilight 4:53 AM EDT 9:13 PM EDT
Astronomical Twilight 4:16 AM EDT 9:51 PM EDT
Moon 1:12 AM EDT (5/25) 11:51 AM EDT (5/25)
Length of Visible Light 15h 09m
Length of Day
14h 12m
Waning Gibbous, 60% of the Moon is Illuminated
May 25
Waning Gibbous
May 26
Last Quarter
Jun 3
New
Jun 10
First Quarter
Jun 17
Full

Hourly Weather History & Observations

Time (EDT) Temp. Heat Index Dew Point Humidity Pressure Visibility Wind Dir Wind Speed Gust Speed Precip Events Conditions
12:58 AM 77.0 °F - 59.0 °F 54% 30.07 in 10.0 mi East 9.2 mph - N/A   Clear
1:58 AM 75.9 °F - 57.9 °F 54% 30.06 in 10.0 mi East 8.1 mph - N/A   Clear
2:58 AM 75.9 °F - 60.1 °F 58% 30.06 in 10.0 mi ENE 4.6 mph - N/A   Clear
3:58 AM 75.0 °F - 63.0 °F 66% 30.06 in 10.0 mi East 4.6 mph - N/A   Clear
4:58 AM 70.0 °F - 63.0 °F 78% 30.08 in 10.0 mi NNE 5.8 mph - N/A   Clear
5:58 AM 70.0 °F - 64.0 °F 81% 30.10 in 10.0 mi Calm Calm - N/A   Clear
6:58 AM 71.1 °F - 66.0 °F 84% 30.12 in 10.0 mi Calm Calm - N/A   Clear
7:58 AM 78.1 °F - 68.0 °F 71% 30.14 in 10.0 mi ENE 3.5 mph - N/A   Clear
8:58 AM 81.0 °F 84.1 °F 69.1 °F 67% 30.16 in 10.0 mi East 5.8 mph - N/A   Clear
9:58 AM 82.0 °F 83.8 °F 64.9 °F 56% 30.17 in 10.0 mi East 11.5 mph - N/A   Clear
10:58 AM 82.9 °F 85.4 °F 66.9 °F 58% 30.17 in 10.0 mi SE 9.2 mph - N/A   Clear
11:58 AM 82.9 °F 85.0 °F 66.0 °F 56% 30.18 in 10.0 mi ESE 11.5 mph - N/A   Clear
12:58 PM 84.0 °F 86.3 °F 66.0 °F 55% 30.18 in 10.0 mi SSE 11.5 mph 16.1 mph N/A   Clear
1:58 PM 84.0 °F 86.5 °F 66.9 °F 56% 30.17 in 10.0 mi SSE 10.4 mph - N/A   Clear
2:58 PM 82.9 °F 85.8 °F 68.0 °F 60% 30.16 in 10.0 mi SSE 12.7 mph - N/A   Clear
3:58 PM 84.0 °F 87.0 °F 68.0 °F 58% 30.15 in 10.0 mi SSE 9.2 mph - N/A   Clear
4:58 PM 82.9 °F 85.4 °F 66.9 °F 58% 30.15 in 10.0 mi SSE 10.4 mph - N/A   Clear
5:58 PM 81.0 °F 83.8 °F 68.0 °F 65% 30.14 in 10.0 mi SE 11.5 mph - N/A   Clear
6:58 PM 80.1 °F 82.3 °F 66.9 °F 64% 30.14 in 10.0 mi SSE 12.7 mph - N/A   Clear
7:58 PM 78.1 °F - 66.0 °F 66% 30.14 in 10.0 mi SSE 12.7 mph - N/A   Clear
8:58 PM 77.0 °F - 66.9 °F 71% 30.14 in 10.0 mi SSE 8.1 mph - N/A   Clear
9:58 PM 77.0 °F - 68.0 °F 74% 30.16 in 10.0 mi SSE 9.2 mph - N/A   Clear
10:58 PM 77.0 °F - 68.0 °F 74% 30.16 in 10.0 mi South 6.9 mph - N/A   Clear
11:58 PM 75.9 °F - 69.1 °F 79% 30.15 in 10.0 mi South 8.1 mph - N/A   Clear